This demonstration page uses our WeatherBlox Daily Observations layout. Learn more.

Left ArrowRight Arrow

40.92945, -100.16068

Hourly Observations for October 10, 2018

Temp ( °F °C ) Dew Point ( °F °C ) Humidity (%) Winds ( mph kmh ) Pressure ( in mb ) Visibility ( mi km ) Precip ( " mm )
12:15 am 00:15 Cloudy 38 3.5 36 2 90 90 NNW 15 24 29.88 1012 7 11.26538 0 0
12:35 am 00:35 Cloudy with Drizzle 38 3.5 36 2.1 91 91 NNW 15 24 29.88 1012 5 8.0467 0 0
12:55 am 00:55 Cloudy with Drizzle 38 3.5 36 2.2 91 91 NNW 14 22 29.88 1012 3 4.82802 0 0
1:15 am 01:15 Cloudy with Drizzle 38 3.3 36 2.2 93 93 NNW 13 20 29.88 1012 2.5 4.02335 0.01 0.254
1:35 am 01:35 Cloudy with Drizzle 38 3.3 36 2.2 93 93 NNW 15 24 29.91 1013 2.5 4.02335 0.01 0.254
1:55 am 01:55 Cloudy with Drizzle 38 3.2 36 2.2 93 93 NW 14 22 29.91 1013 2.5 4.02335 0.02 0.508
2:15 am 02:15 Cloudy with Drizzle 38 3.1 36 2.1 93 93 NW 12 19 29.91 1013 2.5 4.02335 0.01 0.254
2:35 am 02:35 Cloudy with Drizzle 38 3.1 36 2.1 93 93 NW 14 22 29.91 1013 3 4.82802 0.01 0.254
2:55 am 02:55 Cloudy with Drizzle 37 3 36 2 93 93 NW 15 24 29.91 1013 3 4.82802 0.01 0.254
3:15 am 03:15 Cloudy with Drizzle 37 3 36 2 93 93 NW 16 26 29.91 1013 3 4.82802 0 0
3:35 am 03:35 Cloudy with Drizzle 37 2.8 35 1.7 93 93 NW 17 28 29.91 1013 3 4.82802 0 0
3:55 am 03:55 Cloudy with Light Rain 37 2.6 35 1.5 93 93 NW 17 28 29.91 1013 5 8.0467 0.01 0.254
4:15 am 04:15 Cloudy with Light Rain 37 2.5 34 1.3 92 92 NW 14 22 29.91 1013 7 11.26538 0 0
4:35 am 04:35 Cloudy with Light Rain 37 2.6 35 1.5 93 93 NW 15 24 29.94 1014 10 16.0934 0 0
4:55 am 04:55 Cloudy with Light Rain 37 2.7 34 1.2 90 90 NNW 13 20 29.94 1014 10 16.0934 0 0
5:15 am 05:15 Cloudy with Drizzle 37 2.7 34 1 89 89 NNW 13 20 29.94 1014 10 16.0934 0 0
5:35 am 05:35 Cloudy 37 2.6 34 1 89 89 NW 15 24 29.94 1014 10 16.0934 0 0
5:55 am 05:55 Cloudy 37 2.6 34 1 89 89 NNW 13 20 29.94 1014 10 16.0934 0 0
6:15 am 06:15 Cloudy 37 2.5 33 0.8 89 89 NNW 15 24 29.97 1015 10 16.0934 0 0
6:35 am 06:35 Cloudy 37 2.5 33 0.6 87 87 NNW 12 19 29.97 1015 10 16.0934 0 0
6:55 am 06:55 Cloudy 37 2.6 33 0.5 86 86 NNW 15 24 29.94 1014 10 16.0934 0 0
7:15 am 07:15 Cloudy 37 2.6 33 0.5 86 86 NNW 12 19 29.94 1014 10 16.0934 0 0
7:35 am 07:35 Cloudy 37 2.6 33 0.5 86 86 NW 13 20 30 1016 10 16.0934 0 0
7:55 am 07:55 Cloudy 37 2.6 33 0.3 85 85 NW 17 28 30 1016 10 16.0934 0 0
8:15 am 08:15 Cloudy 37 2.6 32 0.2 84 84 NNW 14 22 30 1016 10 16.0934 0 0
8:35 am 08:35 Cloudy 37 2.6 32 0.1 84 84 NNW 14 22 30 1016 10 16.0934 0 0
8:55 am 08:55 Cloudy 37 2.8 32 0.2 83 83 NW 14 22 30.03 1017 10 16.0934 0 0
9:15 am 09:15 Cloudy 37 2.8 33 0.5 85 85 NW 20 31 30.03 1017 7 11.26538 0 0
9:35 am 09:35 Cloudy 37 2.8 33 0.5 85 85 NW 21 33 30.03 1017 10 16.0934 0 0
9:55 am 09:55 Cloudy 38 3.2 33 0.7 84 84 NNW 17 28 30 1016 10 16.0934 0 0
10:15 am 10:15 Cloudy 39 3.8 33 0.6 80 80 NNW 18 30 30 1016 10 16.0934 0 0
10:35 am 10:35 Cloudy 39 3.8 32 0.1 77 77 NNW 17 28 30 1016 10 16.0934 0 0
10:55 am 10:55 Cloudy 40 4.5 33 0.3 74 74 NNW 20 31 30 1016 10 16.0934 0 0
11:15 am 11:15 Cloudy 40 4.3 32 0.2 75 75 NNW 17 28 30.03 1017 10 16.0934 0 0
11:35 am 11:35 Cloudy 40 4.6 32 0.2 73 73 NW 18 30 30.03 1017 10 16.0934 0 0
11:55 am 11:55 Cloudy 42 5.4 33 0.8 73 73 NW 20 31 30.03 1017 10 16.0934 0 0
12:15 pm 12:15 Cloudy 42 5.4 33 0.4 70 70 NW 17 28 30.03 1017 10 16.0934 0 0
12:35 pm 12:35 Cloudy 42 5.5 33 0.6 71 71 NW 17 28 30.03 1017 10 16.0934 0 0
12:55 pm 12:55 Cloudy 42 5.7 33 0.5 70 70 NW 16 26 30.03 1017 10 16.0934 0 0
1:15 pm 13:15 Cloudy 43 6 33 0.6 69 69 NW 20 31 30.03 1017 10 16.0934 0 0
1:35 pm 13:35 Cloudy 43 6.2 33 0.4 67 67 NNW 17 28 30.03 1017 10 16.0934 0 0
1:55 pm 13:55 Cloudy 43 6.3 33 0.6 67 67 NW 18 30 30.03 1017 10 16.0934 0 0
2:15 pm 14:15 Cloudy 44 6.4 33 0.6 67 67 NW 20 31 30.03 1017 10 16.0934 0 0
2:35 pm 14:35 Cloudy 44 6.4 33 0.7 67 67 NW 15 24 30.03 1017 10 16.0934 0 0
2:55 pm 14:55 Cloudy 44 6.7 33 0.7 66 66 NW 16 26 30 1016 10 16.0934 0 0
3:15 pm 15:15 Cloudy 45 7.3 34 1 65 65 NW 17 28 30 1016 10 16.0934 0 0
3:35 pm 15:35 Cloudy 45 7.2 33 0.6 63 63 NW 18 30 30 1016 10 16.0934 0 0
3:55 pm 15:55 Cloudy 46 7.9 34 1.3 63 63 NW 16 26 30 1016 10 16.0934 0 0
4:15 pm 16:15 Cloudy 45 7 33 0.4 63 63 NW 16 26 30 1016 10 16.0934 0 0
4:35 pm 16:35 Cloudy 45 7.2 33 0.5 63 63 NNW 16 26 30.03 1017 10 16.0934 0 0
4:55 pm 16:55 Cloudy 44 6.9 32 0.1 62 62 NNW 16 26 30.03 1017 10 16.0934 0 0
5:15 pm 17:15 Cloudy 43 6.3 33 0.6 67 67 NNW 17 28 30.06 1018 10 16.0934 0 0
5:35 pm 17:35 Cloudy 43 6 32 0.1 66 66 NNW 15 24 30.06 1018 10 16.0934 0 0
5:55 pm 17:55 Mostly Cloudy 42 5.7 32 0.1 68 68 NNW 16 26 30.09 1019 10 16.0934 0 0
6:15 pm 18:15 Mostly Cloudy 42 5.5 32 0 68 68 NNW 16 26 30.09 1019 10 16.0934 0 0
6:35 pm 18:35 Cloudy 41 5.2 32 0 69 69 NNW 14 22 30.09 1019 10 16.0934 0 0
6:55 pm 18:55 Cloudy 41 5 32 0 70 70 NNW 12 19 30.09 1019 10 16.0934 0 0
7:15 pm 19:15 Cloudy 41 4.8 32 0 71 71 NNW 13 20 30.09 1019 10 16.0934 0 0
7:35 pm 19:35 Cloudy 40 4.7 32 0 72 72 NNW 12 19 30.09 1019 10 16.0934 0 0
7:55 pm 19:55 Cloudy 40 4.5 32 0 73 73 NNW 15 24 30.12 1020 10 16.0934 0 0
8:15 pm 20:15 Mostly Cloudy 39 4 32 -0.1 75 75 NNW 12 19 30.15 1021 10 16.0934 0 0
8:35 pm 20:35 Mostly Cloudy 38 3.6 32 -0.1 77 77 NW 14 22 30.15 1021 10 16.0934 0 0
8:55 pm 20:55 Partly Cloudy 37 3 31 -0.3 79 79 NNW 10 17 30.18 1022 10 16.0934 0 0
9:15 pm 21:15 Partly Cloudy 37 2.6 32 -0.2 82 82 NNW 13 20 30.18 1022 10 16.0934 0 0
9:35 pm 21:35 Mostly Cloudy 37 2.7 32 0 83 83 NNW 10 17 30.18 1022 10 16.0934 0 0
9:55 pm 21:55 Partly Cloudy 36 2.3 32 -0.2 84 84 NW 6 9 30.18 1022 10 16.0934 0 0
10:15 pm 22:15 Clear 36 2 31 -0.3 85 85 NNW 9 15 30.18 1022 10 16.0934 0 0
10:35 pm 22:35 Clear 34 1 31 -0.6 89 89 NW 7 11 30.24 1024 10 16.0934 0 0
10:55 pm 22:55 Clear 34 1 31 -0.5 90 90 NW 6 9 30.24 1024 10 16.0934 0 0
11:15 pm 23:15 Clear 33 0.3 30 -1 91 91 NW 7 11 30.24 1024 10 16.0934 0 0
11:35 pm 23:35 Clear 33 0.3 30 -1.2 90 90 NW 6 9 30.24 1024 10 16.0934 0 0
11:55 pm 23:55 Clear 32 -0.1 29 -1.5 90 90 NW 6 9 30.24 1024 10 16.0934 0 0

Powered by AerisWeather